This is the latest recevied weather packets stored in our database for station/object WMKL. If no packets are shown the sender has not sent any weather packets the latest 10 day(s).
| Time | Temp. | Humidity | Pressure | Rain* | Wind** | Luminosity | Snow |
|---|---|---|---|---|---|---|---|
| 1777857049 | 26.67° C | 88% | 1010 hPa | - | - | - | - |
| 1777853445 | 25.56° C | 88% | 1009 hPa | - | - | - | - |
| 1777849845 | 25° C | 94% | 1009 hPa | - | - | - | - |
| 1777846263 | 25° C | 94% | 1008 hPa | - | - | - | - |
| 1777842647 | 25° C | 94% | 1008 hPa | - | - | - | - |
| 1777839045 | 25° C | 88% | 1008 hPa | - | - | - | - |
| 1777835446 | 23.89° C | 10% | - | - | - | - | - |
| 1777831845 | 23.89° C | 94% | 1010 hPa | - | - | - | - |
| 1777828263 | 25.56° C | 88% | 1010 hPa | - | - | - | - |
| 1777824645 | 27.78° C | 88% | 1010 hPa | - | - | - | - |
| 1777821050 | 28.89° C | 83% | 1010 hPa | - | - | - | - |
| 1777817442 | 28.89° C | 83% | 1009 hPa | - | - | - | - |
| 1777813841 | 28.89° C | 83% | 1008 hPa | - | - | - | - |
| 1777810264 | 30° C | 74% | 1008 hPa | - | - | - | - |
| 1777806648 | 30.56° C | 70% | 1006 hPa | - | - | - | - |
| 1777803044 | 30.56° C | 70% | 1006 hPa | - | - | - | - |
| 1777799444 | 30.56° C | 74% | 1005 hPa | - | - | - | - |
| 1777795863 | 30.56° C | 70% | 1006 hPa | - | - | - | - |
| 1777792245 | 27.78° C | 88% | 1007 hPa | - | - | - | - |
| 1777788644 | 26.67° C | 88% | 1009 hPa | - | - | - | - |
| 1777785044 | 31.67° C | 70% | 1010 hPa | - | - | - | - |
| 1777781462 | 30.56° C | 70% | 1010 hPa | - | - | - | - |
| 1777777845 | 30.56° C | 66% | 1010 hPa | - | - | - | - |
| 1777774248 | 30° C | 70% | 1010 hPa | - | - | - | - |
| 1777770643 | 28.89° C | 79% | 1010 hPa | - | - | - | - |
* Rain since midnight (hover to see other rain measurements)
** Current wind speed in m/s (hover to see current wind gust speed)